Dewpoint
21 19 19 20 21 21 21 23 24 27 27 27 27 28 29 29 29 29 31 34 34 36 37 39 41 42 42 43 46 48 48 47 44 49 51 54 53 53 56 55 58 59 60
21 18 19 19 20 21 22 22 24 24 25 26 27 27 27 29 29 29 31 33 35 36 38 41 41 43 45 45 48 47 48 48 49 47 50 51 54 52 53 51 56 57 59
17 18 19 20 20 22 23 24 24 25 25 25 26 26 27 29 30 31 32 34 35 37 41 40 44 44 46 47 47 48 49 49 51 50 49 52 51 50 50 50 53 54 56
17 18 19 21 21 23 24 24 24 25 25 25 26 27 28 29 31 31 32 35 37 38 41 42 42 44 46 48 48 49 49 51 51 50 49 53 49 50 50 50 50 54 54
16 18 20 21 22 23 23 24 25 26 25 26 26 27 28 29 28 30 34 36 36 38 40 39 43 46 46 49 52 51 51 51 50 50 49 53 49 50 49 51 50 54 55
17 18 19 22 21 22 23 25 25 25 27 27 27 28 28 29 30 33 34 35 36 38 40 39 43 45 46 48 52 53 52 51 50 50 49 52 50 51 50 51 51 53 53
17 16 18 18 20 21 23 24 25 26 27 28 28 28 29 29 30 31 34 34 36 39 40 40 43 44 47 47 51 53 53 53 52 50 51 53 51 52 50 52 52 53 51
15 17 18 18 20 22 23 25 26 27 27 28 29 29 29 30 30 30 31 33 35 39 40 42 45 45 46 47 50 53 53 53 55 53 52 53 52 53 51 53 52 53 55
18 18 19 19 21 24 25 26 27 28 28 28 28 29 30 30 31 30 33 34 37 38 40 43 45 45 46 48 49 50 52 53 56 55 53 54 55 54 52 53 52 54 53
20 20 20 21 24 25 26 26 28 28 26 28 29 30 30 29 31 31 34 34 35 37 39 40 43 44 46 48 49 51 52 53 55 55 54 55 58 56 54 53 53 52 52
21 20 22 23 25 25 26 27 27 26 27 29 30 30 30 30 31 32 33 34 35 38 37 39 42 44 46 48 51 53 53 54 53 51 51 57 57 55 54 53 53 53 52
20 22 23 24 25 25 25 26 26 26 28 30 29 29 29 30 32 33 33 34 36 37 37 39 42 44 47 50 51 54 55 55 55 54 55 57 56 54 53 53 53 53 52
21 22 24 24 24 24 24 24 24 27 29 30 29 31 32 33 34 34 34 34 36 37 38 39 42 46 47 49 50 52 54 56 55 53 54 56 56 55 54 53 52 53 51
22 22 23 24 24 24 25 25 25 27 30 32 33 33 34 35 34 35 33 35 37 38 38 40 44 45 46 47 49 50 55 56 55 53 55 56 55 54 53 52 50 49 50
23 24 24 24 24 25 25 25 26 29 31 30 31 33 34 35 36 35 35 36 37 38 40 42 42 43 43 44 46 47 51 57 55 56 56 55 55 53 52 50 48 48 47
24 25 25 26 26 27 27 27 29 31 32 33 34 35 34 35 34 34 35 38 39 40 40 41 41 41 42 43 44 46 49 55 57 56 56 54 53 52 50 47 47 47 46
26 26 27 28 28 28 28 29 30 31 33 34 35 35 34 34 35 33 34 37 38 39 40 40 40 41 41 42 43 45 47 50 57 57 56 54 52 51 48 46 47 46 45
28 29 30 29 29 30 31 31 32 32 33 34 35 35 35 36 33 34 36 36 36 38 40 41 40 41 41 41 43 44 47 50 57 56 54 53 51 49 47 47 46 46 46
29 30 30 31 31 32 32 33 33 34 35 35 35 35 35 35 32 32 33 34 35 36 38 41 40 40 41 41 42 44 47 49 54 55 54 53 51 49 48 48 47 46 47
31 32 32 32 32 32 33 34 34 34 33 33 35 36 36 35 34 31 31 33 34 36 37 40 39 40 41 41 42 44 46 49 55 55 54 53 50 49 48 48 47 47 47
32 33 32 32 33 35 35 36 36 35 35 35 35 34 34 34 34 29 30 31 34 35 35 39 39 39 41 41 42 43 45 47 50 56 54 53 51 50 49 48 48 47 48
32 32 34 35 36 36 35 35 35 35 34 34 34 34 32 33 34 30 29 30 34 36 36 38 39 40 41 42 43 43 45 46 47 56 55 53 53 52 51 49 48 48 48
35 35 36 35 34 34 34 34 34 34 33 32 32 33 34 34 35 32 29 31 34 36 36 38 38 40 41 42 43 45 44 45 45 49 55 53 53 53 52 50 49 48 49
37 35 34 34 34 33 33 34 34 34 34 34 33 34 34 35 35 35 34 34 35 36 37 39 39 39 40 42 42 44 45 44 44 47 56 54 54 53 53 51 50 49 50
35 34 34 33 34 34 34 33 33 33 34 34 34 33 34 35 35 36 36 36 36 35 37 39 40 39 39 40 42 43 43 43 44 48 55 54 55 54 52 51 51 50 50
34 34 34 34 33 34 34 34 33 33 33 34 34 35 35 36 35 36 36 37 37 35 37 38 38 37 38 39 41 42 43 44 44 49 56 55 55 54 52 51 51 50 50
Wind_Speed
13 12 6 7 10 11 12 13 15 16 15 15 16 17 18 17 18 17 18 18 20 20 21 26 31 33 29 27 27 21 17 19 31 23 19 19 26 29 27 24 24 25 23
13 9 8 10 10 11 13 14 15 15 15 17 17 18 19 17 17 19 21 21 17 21 27 29 34 32 28 27 21 22 22 19 24 26 16 17 32 28 29 27 23 22 21
12 10 9 10 9 11 14 15 14 15 17 18 18 17 19 21 20 20 21 18 18 22 24 32 27 29 26 20 19 20 20 25 18 16 22 16 31 29 28 25 23 20 19
13 11 10 10 11 13 15 14 15 15 18 17 17 19 19 22 18 20 20 16 18 22 23 27 31 29 25 19 21 23 23 15 17 17 24 21 31 28 29 29 24 21 22
11 11 12 11 12 13 13 15 17 16 15 17 20 21 18 19 19 18 17 17 20 22 22 26 29 31 40 28 22 20 21 17 13 13 14 20 30 30 32 26 27 23 21
12 12 13 10 11 13 15 17 15 15 15 18 18 19 20 17 23 27 26 23 20 18 20 27 30 32 31 36 34 27 21 21 18 14 18 26 32 31 27 29 28 29 25
14 11 7 10 11 13 14 13 14 15 16 18 19 18 19 20 24 29 29 22 19 19 20 23 28 26 30 26 26 19 29 28 23 17 17 23 29 32 32 30 31 31 24
9 8 9 9 12 11 11 13 15 15 17 17 18 19 19 18 26 28 30 22 18 20 22 23 22 30 30 31 26 19 15 20 22 18 18 16 27 31 36 31 33 26 22
7 9 10 10 8 9 12 15 15 16 16 17 17 18 20 19 23 28 26 17 15 21 22 20 23 27 32 34 29 23 19 17 22 26 22 15 26 33 34 31 31 29 28
9 12 9 6 8 11 14 16 14 14 16 16 18 17 21 19 20 26 23 16 17 18 17 21 25 30 37 37 32 24 20 22 26 24 20 21 24 33 37 33 33 34 32
12 8 6 7 8 12 15 13 14 14 15 17 14 17 15 18 23 29 30 23 19 14 20 23 24 34 40 42 35 20 17 19 19 18 16 18 27 31 31 31 31 33 34
9 8 8 7 10 12 14 15 12 15 15 15 15 12 14 17 19 25 28 28 25 22 22 22 25 38 42 34 27 20 15 20 17 17 12 27 29 31 31 30 29 27 25
6 7 9 11 12 12 14 15 14 12 13 13 13 13 17 17 17 23 25 27 29 26 22 27 36 37 35 26 25 23 13 18 19 13 21 26 29 29 29 28 24 25 17
7 9 9 10 13 14 12 11 13 13 7 11 14 17 18 19 18 16 18 20 23 25 27 25 29 28 27 24 20 16 9 13 17 16 25 26 26 30 29 28 27 26 24
7 9 11 11 11 11 11 12 14 5 6 14 17 17 18 20 17 25 26 24 22 26 32 21 19 22 25 24 22 21 17 13 17 12 24 28 27 29 27 28 28 25 22
8 9 9 11 11 10 12 14 12 7 15 19 23 21 17 21 25 26 27 26 31 32 23 14 18 21 23 22 22 21 18 10 17 19 25 30 31 30 30 29 27 26 29
8 9 9 11 12 14 14 9 13 13 15 17 21 20 21 24 23 23 25 29 31 29 10 13 16 18 22 22 21 19 19 17 16 25 28 32 32 28 34 30 29 27 28
7 10 10 12 11 8 7 11 13 14 15 16 15 18 20 21 18 21 24 25 17 13 12 10 15 17 21 23 23 21 19 16 10 25 30 31 33 32 32 30 30 30 29
7 10 11 10 9 11 9 12 12 13 14 13 16 14 13 16 18 18 19 15 17 14 15 11 11 17 19 22 23 21 18 15 12 27 29 28 31 34 30 29 29 31 32
9 12 11 8 8 10 10 13 12 12 11 14 13 13 17 15 13 14 13 15 17 13 14 13 11 16 18 22 24 24 21 18 5 28 27 25 29 31 32 30 29 32 28
5 7 12 11 11 9 11 12 9 13 14 13 14 15 18 17 13 15 14 16 17 15 14 14 10 15 17 20 22 22 22 19 15 17 23 26 26 28 28 28 28 27 26
6 9 10 10 9 8 9 11 11 12 13 13 14 14 17 13 12 13 14 15 16 15 14 14 10 13 15 19 21 22 21 20 17 20 24 27 26 25 25 27 28 25 26
6 7 8 6 8 11 10 10 11 12 13 13 12 12 13 11 12 11 13 15 14 15 14 14 11 13 14 18 18 18 20 20 20 15 30 29 28 27 25 27 29 29 27
5 4 7 7 8 10 10 10 11 13 13 13 11 12 13 14 11 11 11 14 15 16 13 11 11 14 15 19 19 20 21 22 21 17 31 31 29 28 27 27 28 30 31
3 5 7 8 10 9 9 10 11 11 12 11 11 11 10 12 11 12 13 13 14 13 13 10 10 12 13 19 21 26 29 33 29 18 29 30 32 31 30 30 29 25 28
3 5 7 8 8 9 10 10 11 12 11 10 10 10 11 9 12 12 12 14 14 12 11 10 11 13 15 15 19 29 32 35 30 11 20 28 31 29 30 30 33 28 31
Wind_Direction
211 219 211 248 258 271 281 284 279 274 286 287 290 289 283 283 281 281 286 286 286 289 296 293 290 284 274 268 260 248 238 238 243 256 238 266 179 172 164 156 157 170 176
215 206 225 247 260 272 275 283 286 289 298 295 293 290 288 285 287 283 283 284 288 298 299 298 289 286 270 257 260 235 236 242 235 249 248 258 179 177 162 161 160 170 174
209 207 227 250 264 279 284 282 290 298 293 292 290 294 295 289 283 275 274 278 289 294 286 303 299 300 293 259 255 255 253 246 211 233 269 263 184 170 163 165 159 167 173
204 216 234 252 263 270 274 283 286 284 289 294 300 293 289 284 279 282 276 278 282 291 287 304 304 295 298 277 257 249 246 204 216 222 250 259 169 163 163 161 168 164 171
197 218 232 242 254 266 278 283 282 283 292 298 299 291 290 294 291 293 287 287 289 290 297 310 304 302 311 305 288 229 226 214 214 233 251 230 163 161 170 167 168 163 166
206 229 239 243 258 268 273 274 285 297 299 298 293 301 297 300 301 303 304 298 294 295 302 315 307 309 313 320 301 234 208 208 208 224 259 225 165 166 166 168 166 164 160
216 229 247 258 263 272 274 293 301 309 306 300 297 298 301 294 301 304 303 303 295 297 298 306 305 313 313 311 305 288 222 217 207 211 274 172 171 169 167 169 171 173 170
219 241 253 262 272 280 302 305 308 304 301 299 300 295 295 297 300 304 307 302 300 298 300 300 299 310 311 317 320 281 267 229 221 212 203 256 187 176 171 171 171 162 138
232 249 255 264 285 306 307 303 299 299 300 296 296 298 295 293 298 304 305 306 300 295 300 303 305 304 305 309 309 302 277 222 218 209 213 225 210 177 173 164 169 152 151
232 246 249 279 293 292 290 291 290 293 298 297 299 299 299 304 310 316 309 304 303 298 304 310 306 308 308 310 306 294 281 210 189 200 216 227 208 182 178 170 163 165 158
232 238 262 268 283 284 286 289 295 299 300 296 305 305 311 337 321 319 322 321 310 320 321 315 310 309 310 310 308 297 295 190 185 206 228 204 181 185 179 175 173 166 163
228 237 256 272 278 279 287 291 296 298 294 299 304 310 321 305 302 311 314 312 323 328 317 311 306 308 311 314 317 312 304 189 172 196 225 178 177 184 180 175 172 171 173
230 257 268 269 274 283 286 294 295 304 303 316 315 324 314 308 306 308 314 319 321 318 311 309 313 314 321 321 318 317 289 191 192 202 211 170 179 175 174 168 164 162 146
248 266 276 282 283 282 281 292 297 293 333 328 319 311 306 305 304 306 313 313 315 315 312 313 312 319 321 319 325 327 283 210 191 200 178 169 172 168 171 166 154 153 148
271 281 281 282 287 289 291 287 291 283 330 315 300 293 298 301 303 309 311 311 313 308 313 312 327 329 331 332 333 336 332 202 184 188 170 167 168 169 169 159 158 149 153
263 277 285 287 289 294 296 293 279 319 310 295 293 289 292 295 298 307 310 313 309 309 312 326 329 330 328 325 327 326 327 250 193 182 178 166 168 168 163 158 155 152 153
261 275 287 295 294 286 283 309 326 307 300 299 298 296 294 296 296 314 316 311 309 310 311 327 326 328 325 323 326 325 317 307 191 183 170 168 165 163 163 159 158 152 154
274 286 288 281 281 299 333 315 304 298 303 303 296 301 299 295 317 316 315 321 313 320 314 322 327 325 325 326 324 325 317 317 220 169 166 166 163 161 165 160 158 156 154
303 294 286 290 304 297 304 296 289 295 294 304 306 303 308 303 315 318 321 316 311 312 316 307 325 331 326 324 324 326 321 317 290 162 161 165 162 162 163 159 157 155 154
288 281 299 314 315 302 292 287 291 291 310 307 307 310 309 305 307 320 321 315 309 308 316 312 328 334 329 330 327 329 336 334 250 154 154 164 162 160 160 157 156 155 159
323 355 322 304 300 295 292 297 312 303 294 290 292 291 303 309 298 312 313 312 311 308 316 310 332 338 333 329 328 332 338 335 325 160 162 158 161 160 161 159 156 160 153
312 284 284 287 304 330 320 298 292 296 297 303 299 300 304 303 300 305 307 304 305 307 310 308 325 329 329 328 326 330 334 335 328 189 169 166 166 158 158 157 154 156 154
284 309 315 344 333 317 307 302 307 291 295 294 303 308 308 306 302 296 310 297 302 303 305 310 333 330 330 329 327 329 329 330 324 277 170 166 168 161 156 157 156 154 156
314 351 337 322 312 308 306 309 301 297 295 291 297 296 297 301 307 308 311 301 307 304 308 320 340 333 332 334 332 334 332 330 328 280 181 163 164 161 158 159 161 164 158
22 344 319 311 302 301 307 311 305 297 294 295 297 303 313 311 309 317 309 299 303 311 320 335 341 334 340 338 336 335 332 334 336 304 170 165 165 165 164 162 162 165 160
341 327 306 300 306 308 304 301 304 300 290 294 302 306 307 307 315 306 311 317 320 324 329 337 337 348 347 338 340 338 338 336 341 308 170 162 162 163 163 163 160 159 159